FWI16 TFFR-SVMI

Flight info

Callsign FWI16
Flight time N/A
Altitude 24000
Route TULEX2F TULEX A550 ITEGO/N0491F380 UA550 DABAM/N0485F400 UA550 OGREK/N0464F240 A550 TOROP NETSI1
Aircraft A35K/H-SDE2E3GHIJ3J4J5LM1ORWXY/LB1D1

Departure

Time 2026-05-04 08:24
Airport Maryse Condé International Airport (TFFR)

Arrival

Time N/A
Airport Maiquetía Simón Bolívar International Airport (SVMI)
Time Latitude Longitude Altitude Speed Heading
2026-05-04 07:54 16.26907 -61.52674 27 ft 0 kts 10°
2026-05-04 08:13 16.26900 -61.52676 27 ft 3 kts 10°
2026-05-04 08:13 16.26879 -61.52680 25 ft 3 kts 10°
2026-05-04 08:14 16.26863 -61.52683 26 ft 3 kts
2026-05-04 08:14 16.26843 -61.52685 25 ft 3 kts 358°
2026-05-04 08:14 16.26824 -61.52682 25 ft 3 kts 331°
2026-05-04 08:16 16.26803 -61.52629 26 ft 0 kts 282°
2026-05-04 08:17 16.26810 -61.52669 23 ft 13 kts 281°
2026-05-04 08:17 16.26831 -61.52774 27 ft 16 kts 281°
2026-05-04 08:19 16.26598 -61.53559 29 ft 27 kts 281°
2026-05-04 08:19 16.26632 -61.53740 27 ft 23 kts 281°
2026-05-04 08:20 16.26664 -61.53903 29 ft 20 kts 280°
2026-05-04 08:20 16.26696 -61.54079 25 ft 29 kts 281°
2026-05-04 08:20 16.26732 -61.54276 23 ft 26 kts 281°
2026-05-04 08:20 16.26767 -61.54467 20 ft 28 kts 281°
2026-05-04 08:21 16.26796 -61.54627 18 ft 15 kts 281°
2026-05-04 08:21 16.26822 -61.54695 19 ft 10 kts 307°
2026-05-04 08:21 16.26859 -61.54746 23 ft 6 kts 276°
2026-05-04 08:21 16.26838 -61.54765 21 ft 3 kts 184°
2026-05-04 08:22 16.26819 -61.54741 20 ft 5 kts 112°
2026-05-04 08:22 16.26812 -61.54700 19 ft 0 kts 101°
2026-05-04 08:24 16.25641 -61.49017 2796 ft 175 kts 97°
2026-05-04 08:24 16.25439 -61.47670 3181 ft 202 kts 98°
2026-05-04 08:24 16.25192 -61.46147 3629 ft 223 kts 98°
2026-05-04 08:24 16.24745 -61.44541 4171 ft 242 kts 116°
2026-05-04 08:25 16.23512 -61.43297 4838 ft 260 kts 151°
2026-05-04 08:25 16.21712 -61.42875 5670 ft 271 kts 172°
2026-05-04 08:25 16.19816 -61.42774 6572 ft 273 kts 173°
2026-05-04 08:25 16.17910 -61.42680 7370 ft 277 kts 173°
2026-05-04 08:26 16.15965 -61.42559 8171 ft 282 kts 172°
2026-05-04 08:27 16.00456 -61.42210 12155 ft 373 kts 199°
2026-05-04 08:28 15.98204 -61.43586 12791 ft 381 kts 219°
2026-05-04 08:28 15.96442 -61.45673 13398 ft 389 kts 233°
2026-05-04 08:28 15.94954 -61.48037 14070 ft 392 kts 236°
2026-05-04 08:28 15.93489 -61.50437 14664 ft 395 kts 236°
2026-05-04 08:29 15.92024 -61.52820 15217 ft 398 kts 236°
2026-05-04 08:29 15.90523 -61.55241 15861 ft 399 kts 237°
2026-05-04 08:29 15.89010 -61.57669 16474 ft 401 kts 237°
2026-05-04 08:31 15.78101 -61.75083 20283 ft 420 kts 237°
2026-05-04 08:33 15.66682 -61.93250 23979 ft 437 kts 238°
2026-05-04 08:33 15.65023 -61.95885 24030 ft 436 kts 237°
2026-05-04 08:35 15.53180 -62.14673 26317 ft 458 kts 238°
2026-05-04 08:35 15.51428 -62.17450 26804 ft 463 kts 238°
2026-05-04 08:35 15.49656 -62.20255 27287 ft 467 kts 238°
2026-05-04 08:35 15.47873 -62.23079 27779 ft 471 kts 238°
2026-05-04 08:37 15.36832 -62.40532 30408 ft 493 kts 238°
2026-05-04 08:37 15.34947 -62.43507 30835 ft 495 kts 238°
2026-05-04 08:37 15.33120 -62.46333 31242 ft 496 kts 236°